Station Historical Data
Daily Summary for October 6, 2017 Units:  English    Metric   Both
« Previous Day
Next Day »
Daily Weekly Monthly Yearly Custom
  High: Low: Average:
Temperature: 81.6 °F 59.2 °F 70 °F
Dew Point: 65.3 °F 56.3 °F 60.6 °F
Humidity: 91% 48% 74%
Wind Speed: 15.0mph 1.0mph 4.8mph
Wind Gust: 15.0mph - -
Wind- - East
Pressure: 30.17 in 30.02 in -
Precipitation: 0.00 in    
Historical Graphs
 
 
Tabular Data for October 6, 2017
Time Temperature Dew Point Pressure Wind Wind Speed Wind Gust Humidity Rainfall Rate (Hourly) Conditions
00:00 63.5 °F 58.9 °F 30.16 in East 3.0 mph 3.0 mph 85% 0.00 in FEW
00:05 63.4 °F 58.8 °F 30.16 in East 3.0 mph 3.0 mph 85% 0.00 in FEW
00:15 63.3 °F 58.7 °F 30.16 in NE 2.0 mph 3.0 mph 85% 0.00 in FEW
00:20 63.3 °F 58.7 °F 30.16 in North 2.0 mph 2.0 mph 85% 0.00 in FEW
00:25 63.3 °F 58.7 °F 30.16 in North 2.0 mph 2.0 mph 85% 0.00 in FEW
00:30 63.2 °F 58.6 °F 30.16 in North 2.0 mph 2.0 mph 85% 0.00 in FEW
00:40 63.2 °F 58.6 °F 30.15 in North 2.0 mph 2.0 mph 85% 0.00 in FEW
00:45 63.2 °F 58.6 °F 30.15 in North 2.0 mph 2.0 mph 85% 0.00 in FEW
00:50 63.1 °F 58.5 °F 30.15 in North 2.0 mph 2.0 mph 85% 0.00 in FEW
01:00 62.8 °F 58.6 °F 30.15 in North 2.0 mph 2.0 mph 86% 0.00 in FEW
01:05 62.8 °F 58.5 °F 30.15 in North 2.0 mph 2.0 mph 86% 0.00 in FEW
01:10 62.8 °F 58.5 °F 30.15 in North 2.0 mph 2.0 mph 86% 0.00 in FEW
01:15 62.6 °F 58.4 °F 30.15 in North 2.0 mph 2.0 mph 86% 0.00 in CLR
01:25 62.4 °F 58.2 °F 30.15 in North 2.0 mph 2.0 mph 86% 0.00 in CLR
01:45 62.0 °F 58.1 °F 30.15 in North 2.0 mph 2.0 mph 87% 0.00 in CLR
01:50 61.9 °F 58.0 °F 30.15 in North 2.0 mph 2.0 mph 87% 0.00 in CLR
01:55 62.0 °F 58.1 °F 30.15 in North 2.0 mph 2.0 mph 87% 0.00 in CLR
02:00 62.0 °F 58.1 °F 30.15 in North 2.0 mph 2.0 mph 87% 0.00 in CLR
02:05 61.9 °F 58.0 °F 30.15 in North 2.0 mph 2.0 mph 87% 0.00 in CLR
02:20 61.6 °F 58.0 °F 30.15 in North 2.0 mph 2.0 mph 88% 0.00 in CLR
02:25 61.6 °F 58.0 °F 30.15 in North 2.0 mph 2.0 mph 88% 0.00 in CLR
02:30 61.5 °F 57.9 °F 30.15 in North 2.0 mph 2.0 mph 88% 0.00 in CLR
02:35 61.4 °F 57.8 °F 30.15 in North 2.0 mph 2.0 mph 88% 0.00 in CLR
02:40 61.4 °F 57.8 °F 30.15 in North 2.0 mph 2.0 mph 88% 0.00 in CLR
02:45 61.4 °F 57.8 °F 30.15 in North 2.0 mph 2.0 mph 88% 0.00 in CLR
02:50 61.3 °F 57.7 °F 30.14 in North 2.0 mph 2.0 mph 88% 0.00 in CLR
02:55 61.2 °F 57.6 °F 30.15 in North 2.0 mph 2.0 mph 88% 0.00 in CLR
03:00 61.2 °F 57.6 °F 30.15 in North 2.0 mph 2.0 mph 88% 0.00 in CLR
03:05 61.2 °F 57.6 °F 30.15 in North 2.0 mph 2.0 mph 88% 0.00 in CLR
03:10 61.1 °F 57.5 °F 30.15 in North 2.0 mph 2.0 mph 88% 0.00 in CLR
03:15 61.0 °F 57.4 °F 30.15 in ENE 2.0 mph 2.0 mph 88% 0.00 in CLR
03:20 61.0 °F 57.4 °F 30.15 in East 2.0 mph 2.0 mph 88% 0.00 in CLR
03:25 60.9 °F 57.3 °F 30.15 in East 2.0 mph 2.0 mph 88% 0.00 in CLR
03:30 60.8 °F 57.2 °F 30.15 in East 2.0 mph 2.0 mph 88% 0.00 in CLR
03:35 60.7 °F 57.1 °F 30.15 in East 2.0 mph 2.0 mph 88% 0.00 in CLR
03:40 60.6 °F 57.1 °F 30.15 in East 2.0 mph 2.0 mph 88% 0.00 in CLR
03:50 60.5 °F 56.9 °F 30.14 in East 2.0 mph 2.0 mph 88% 0.00 in CLR
03:55 60.4 °F 57.1 °F 30.14 in East 2.0 mph 2.0 mph 89% 0.00 in CLR
04:00 60.3 °F 57.0 °F 30.14 in East 2.0 mph 2.0 mph 89% 0.00 in CLR
04:05 60.2 °F 56.9 °F 30.14 in East 2.0 mph 2.0 mph 89% 0.00 in CLR
04:10 60.2 °F 56.9 °F 30.14 in East 2.0 mph 2.0 mph 89% 0.00 in CLR
04:15 60.2 °F 56.9 °F 30.14 in East 1.0 mph 2.0 mph 89% 0.00 in CLR
04:25 60.0 °F 56.8 °F 30.14 in East 1.0 mph 1.0 mph 89% 0.00 in CLR
04:30 60.1 °F 57.2 °F 30.14 in East 1.0 mph 1.0 mph 90% 0.00 in CLR
04:35 60.2 °F 56.9 °F 30.14 in East 1.0 mph 1.0 mph 89% 0.00 in CLR
04:40 60.1 °F 56.8 °F 30.14 in East 1.0 mph 1.0 mph 89% 0.00 in CLR
04:45 60.1 °F 56.8 °F 30.14 in East 1.0 mph 1.0 mph 89% 0.00 in CLR
04:50 60.0 °F 56.7 °F 30.14 in East 1.0 mph 1.0 mph 89% 0.00 in CLR
04:55 59.9 °F 56.6 °F 30.14 in East 1.0 mph 1.0 mph 89% 0.00 in CLR
05:00 59.9 °F 56.6 °F 30.14 in East 1.0 mph 1.0 mph 89% 0.00 in CLR
05:10 60.0 °F 57.1 °F 30.14 in East 1.0 mph 1.0 mph 90% 0.00 in CLR
05:15 59.9 °F 56.6 °F 30.14 in East 1.0 mph 1.0 mph 89% 0.00 in CLR
05:20 59.8 °F 56.6 °F 30.14 in East 1.0 mph 1.0 mph 89% 0.00 in CLR
05:25 59.8 °F 56.9 °F 30.14 in East 1.0 mph 1.0 mph 90% 0.00 in CLR
05:30 59.8 °F 56.9 °F 30.14 in East 1.0 mph 1.0 mph 90% 0.00 in CLR
05:35 59.8 °F 56.9 °F 30.14 in East 1.0 mph 1.0 mph 90% 0.00 in CLR
05:40 59.7 °F 56.8 °F 30.14 in East 1.0 mph 1.0 mph 90% 0.00 in CLR
05:45 59.7 °F 56.8 °F 30.15 in East 1.0 mph 1.0 mph 90% 0.00 in CLR
05:50 59.7 °F 56.7 °F 30.15 in East 1.0 mph 1.0 mph 90% 0.00 in CLR
05:55 59.6 °F 56.7 °F 30.15 in East 1.0 mph 1.0 mph 90% 0.00 in CLR
06:00 59.6 °F 56.7 °F 30.15 in East 1.0 mph 1.0 mph 90% 0.00 in CLR
06:05 59.6 °F 56.7 °F 30.15 in East 1.0 mph 1.0 mph 90% 0.00 in CLR
06:10 59.7 °F 56.8 °F 30.15 in East 1.0 mph 1.0 mph 90% 0.00 in CLR
06:15 59.7 °F 56.8 °F 30.15 in ENE 1.0 mph 1.0 mph 90% 0.00 in CLR
06:20 59.7 °F 56.8 °F 30.15 in ENE 1.0 mph 1.0 mph 90% 0.00 in CLR
06:25 59.8 °F 56.9 °F 30.15 in ENE 1.0 mph 1.0 mph 90% 0.00 in CLR
06:30 59.8 °F 56.9 °F 30.15 in ENE 1.0 mph 1.0 mph 90% 0.00 in CLR
06:35 59.8 °F 56.8 °F 30.15 in ENE 1.0 mph 1.0 mph 90% 0.00 in CLR
06:40 59.7 °F 56.8 °F 30.15 in ENE 1.0 mph 1.0 mph 90% 0.00 in CLR
06:50 59.7 °F 56.8 °F 30.16 in ENE 1.0 mph 1.0 mph 90% 0.00 in CLR
06:55 59.7 °F 56.8 °F 30.16 in ENE 1.0 mph 1.0 mph 90% 0.00 in CLR
07:00 59.7 °F 56.8 °F 30.16 in ENE 1.0 mph 1.0 mph 90% 0.00 in CLR
07:05 59.7 °F 56.8 °F 30.16 in ENE 1.0 mph 1.0 mph 90% 0.00 in CLR
07:15 59.6 °F 56.7 °F 30.16 in ENE 1.0 mph 1.0 mph 90% 0.00 in CLR
07:20 59.5 °F 56.6 °F 30.16 in ENE 1.0 mph 1.0 mph 90% 0.00 in CLR
07:25 59.6 °F 56.7 °F 30.17 in ENE 1.0 mph 1.0 mph 90% 0.00 in CLR
07:30 59.5 °F 56.6 °F 30.17 in ENE 1.0 mph 1.0 mph 90% 0.00 in CLR
07:35 59.5 °F 56.5 °F 30.16 in ENE 1.0 mph 1.0 mph 90% 0.00 in CLR
07:40 59.3 °F 56.4 °F 30.16 in ENE 1.0 mph 1.0 mph 90% 0.00 in CLR
07:45 59.3 °F 56.3 °F 30.16 in ENE 1.0 mph 1.0 mph 90% 0.00 in CLR
07:50 59.2 °F 56.3 °F 30.16 in ENE 1.0 mph 1.0 mph 90% 0.00 in CLR
07:55 59.2 °F 56.3 °F 30.17 in ENE 1.0 mph 1.0 mph 90% 0.00 in CLR
08:05 59.2 °F 56.6 °F 30.17 in ENE 1.0 mph 1.0 mph 91% 0.00 in CLR
08:10 59.3 °F 56.7 °F 30.17 in ENE 1.0 mph 1.0 mph 91% 0.00 in CLR
08:15 59.3 °F 56.7 °F 30.17 in ENE 1.0 mph 1.0 mph 91% 0.00 in BKN
08:25 59.7 °F 57.1 °F 30.17 in ENE 1.0 mph 1.0 mph 91% 0.00 in BKN
08:30 59.9 °F 57.3 °F 30.17 in ENE 1.0 mph 1.0 mph 91% 0.00 in BKN
08:35 60.2 °F 57.6 °F 30.17 in ENE 1.0 mph 1.0 mph 91% 0.00 in BKN
08:40 60.5 °F 57.8 °F 30.17 in ENE 1.0 mph 1.0 mph 91% 0.00 in BKN
08:45 60.8 °F 58.1 °F 30.17 in ENE 1.0 mph 1.0 mph 91% 0.00 in BKN
08:50 61.1 °F 58.5 °F 30.17 in ENE 1.0 mph 1.0 mph 91% 0.00 in BKN
08:55 61.4 °F 58.5 °F 30.17 in ENE 1.0 mph 1.0 mph 90% 0.00 in BKN
09:00 62.0 °F 58.7 °F 30.17 in ENE 1.0 mph 1.0 mph 89% 0.00 in BKN
09:10 63.0 °F 59.4 °F 30.17 in ENE 1.0 mph 1.0 mph 88% 0.00 in BKN
09:15 63.4 °F 59.5 °F 30.17 in ENE 3.0 mph 3.0 mph 87% 0.00 in BKN
09:25 64.6 °F 60.3 °F 30.17 in ENE 3.0 mph 3.0 mph 86% 0.00 in BKN
09:30 64.9 °F 60.3 °F 30.17 in ENE 3.0 mph 3.0 mph 85% 0.00 in BKN
09:40 65.7 °F 60.7 °F 30.17 in ENE 3.0 mph 3.0 mph 84% 0.00 in BKN
09:45 65.9 °F 61.0 °F 30.17 in ENE 3.0 mph 3.0 mph 84% 0.00 in BKN
09:50 66.4 °F 61.0 °F 30.17 in ENE 3.0 mph 3.0 mph 83% 0.00 in BKN
09:55 66.6 °F 61.3 °F 30.17 in ENE 3.0 mph 3.0 mph 83% 0.00 in BKN
10:05 67.2 °F 61.8 °F 30.17 in ENE 3.0 mph 3.0 mph 83% 0.00 in BKN
10:10 67.6 °F 62.2 °F 30.17 in ENE 3.0 mph 3.0 mph 83% 0.00 in BKN
10:15 67.8 °F 62.5 °F 30.17 in ENE 3.0 mph 3.0 mph 83% 0.00 in BKN
10:20 68.2 °F 62.8 °F 30.17 in East 3.0 mph 3.0 mph 83% 0.00 in BKN
10:25 68.4 °F 63.4 °F 30.17 in East 3.0 mph 3.0 mph 84% 0.00 in BKN
10:30 68.8 °F 63.4 °F 30.17 in East 3.0 mph 3.0 mph 83% 0.00 in BKN
10:35 69.2 °F 63.8 °F 30.17 in East 3.0 mph 3.0 mph 83% 0.00 in BKN
10:40 69.6 °F 63.5 °F 30.17 in East 3.0 mph 3.0 mph 81% 0.00 in BKN
10:45 69.9 °F 63.4 °F 30.17 in East 3.0 mph 3.0 mph 80% 0.00 in BKN
10:50 70.3 °F 64.2 °F 30.17 in East 3.0 mph 3.0 mph 81% 0.00 in BKN
10:55 70.9 °F 64.5 °F 30.17 in East 3.0 mph 3.0 mph 80% 0.00 in BKN
11:00 71.7 °F 63.7 °F 30.17 in East 3.0 mph 3.0 mph 76% 0.00 in BKN
11:05 72.4 °F 64.0 °F 30.17 in East 3.0 mph 3.0 mph 75% 0.00 in BKN
11:10 73.3 °F 64.5 °F 30.16 in East 3.0 mph 3.0 mph 74% 0.00 in BKN
11:15 73.9 °F 64.3 °F 30.16 in East 6.0 mph 6.0 mph 72% 0.00 in SCT
11:20 74.6 °F 64.2 °F 30.16 in East 6.0 mph 6.0 mph 70% 0.00 in SCT
11:30 77.1 °F 65.3 °F 30.16 in East 6.0 mph 6.0 mph 67% 0.00 in SCT
11:35 77.5 °F 64.4 °F 30.16 in East 6.0 mph 6.0 mph 64% 0.00 in SCT
11:40 77.9 °F 64.3 °F 30.16 in East 6.0 mph 6.0 mph 63% 0.00 in SCT
11:45 78.6 °F 64.9 °F 30.15 in East 6.0 mph 6.0 mph 63% 0.00 in SCT
11:50 78.8 °F 64.2 °F 30.15 in East 6.0 mph 6.0 mph 61% 0.00 in SCT
11:55 78.7 °F 63.7 °F 30.15 in East 6.0 mph 6.0 mph 60% 0.00 in SCT
12:00 78.8 °F 63.7 °F 30.15 in East 6.0 mph 6.0 mph 60% 0.00 in SCT
12:05 78.3 °F 63.7 °F 30.15 in East 6.0 mph 6.0 mph 61% 0.00 in SCT
12:10 78.4 °F 63.4 °F 30.15 in East 6.0 mph 6.0 mph 60% 0.00 in SCT
12:15 78.0 °F 63.0 °F 30.15 in ESE 7.0 mph 7.0 mph 60% 0.00 in SCT
12:20 77.3 °F 62.8 °F 30.14 in ESE 7.0 mph 7.0 mph 61% 0.00 in SCT
12:30 77.5 °F 61.5 °F 30.14 in ESE 7.0 mph 7.0 mph 58% 0.00 in SCT
12:35 77.2 °F 61.8 °F 30.15 in ESE 7.0 mph 7.0 mph 59% 0.00 in SCT
12:40 77.7 °F 62.3 °F 30.14 in ESE 7.0 mph 7.0 mph 59% 0.00 in SCT
12:45 77.5 °F 61.6 °F 30.14 in ESE 7.0 mph 7.0 mph 58% 0.00 in SCT
12:50 77.6 °F 61.7 °F 30.14 in ESE 7.0 mph 7.0 mph 58% 0.00 in SCT
12:55 77.9 °F 61.4 °F 30.13 in ESE 7.0 mph 7.0 mph 57% 0.00 in SCT
13:00 78.1 °F 61.1 °F 30.13 in ESE 7.0 mph 7.0 mph 56% 0.00 in SCT
13:05 78.2 °F 61.7 °F 30.13 in ESE 7.0 mph 7.0 mph 57% 0.00 in SCT
13:10 78.5 °F 61.0 °F 30.13 in ESE 7.0 mph 7.0 mph 55% 0.00 in SCT
13:15 78.2 °F 61.7 °F 30.12 in ESE 8.0 mph 8.0 mph 57% 0.00 in BKN
13:20 78.1 °F 61.6 °F 30.12 in ESE 8.0 mph 8.0 mph 57% 0.00 in BKN
13:25 78.1 °F 61.6 °F 30.12 in ESE 8.0 mph 8.0 mph 57% 0.00 in BKN
13:30 78.1 °F 61.6 °F 30.11 in ESE 8.0 mph 8.0 mph 57% 0.00 in BKN
13:35 77.9 °F 61.4 °F 30.11 in ESE 8.0 mph 8.0 mph 57% 0.00 in BKN
13:40 78.2 °F 62.2 °F 30.11 in ESE 8.0 mph 8.0 mph 58% 0.00 in BKN
13:45 78.3 °F 60.3 °F 30.10 in ESE 8.0 mph 8.0 mph 54% 0.00 in BKN
13:50 79.0 °F 61.4 °F 30.10 in ESE 8.0 mph 8.0 mph 55% 0.00 in BKN
14:00 80.4 °F 61.2 °F 30.10 in ESE 8.0 mph 8.0 mph 52% 0.00 in BKN
14:05 80.6 °F 61.3 °F 30.09 in ESE 8.0 mph 8.0 mph 52% 0.00 in BKN
14:10 80.7 °F 60.3 °F 30.09 in ESE 8.0 mph 8.0 mph 50% 0.00 in BKN
14:15 80.9 °F 61.1 °F 30.09 in East 9.0 mph 9.0 mph 51% 0.00 in SCT
14:25 81.6 °F 61.7 °F 30.08 in East 9.0 mph 9.0 mph 51% 0.00 in SCT
14:30 81.2 °F 60.8 °F 30.08 in East 9.0 mph 9.0 mph 50% 0.00 in SCT
14:35 80.9 °F 59.4 °F 30.08 in East 9.0 mph 9.0 mph 48% 0.00 in SCT
14:40 80.3 °F 60.5 °F 30.07 in East 9.0 mph 9.0 mph 51% 0.00 in SCT
14:45 80.2 °F 60.4 °F 30.07 in East 9.0 mph 9.0 mph 51% 0.00 in SCT
14:50 80.3 °F 60.5 °F 30.07 in East 9.0 mph 9.0 mph 51% 0.00 in SCT
14:55 80.5 °F 60.7 °F 30.07 in East 9.0 mph 9.0 mph 51% 0.00 in SCT
15:00 80.8 °F 61.5 °F 30.06 in East 9.0 mph 9.0 mph 52% 0.00 in SCT
15:05 80.9 °F 61.7 °F 30.06 in East 9.0 mph 9.0 mph 52% 0.00 in SCT
15:10 80.8 °F 61.5 °F 30.06 in East 9.0 mph 9.0 mph 52% 0.00 in SCT
15:15 80.7 °F 61.4 °F 30.06 in ESE 15.0 mph 15.0 mph 52% 0.00 in FEW
15:20 80.6 °F 60.8 °F 30.06 in SE 15.0 mph 15.0 mph 51% 0.00 in FEW
15:25 80.4 °F 60.6 °F 30.06 in SE 15.0 mph 15.0 mph 51% 0.00 in FEW
15:30 80.1 °F 60.3 °F 30.06 in SE 15.0 mph 15.0 mph 51% 0.00 in FEW
15:40 80.2 °F 61.0 °F 30.05 in SE 15.0 mph 15.0 mph 52% 0.00 in FEW
15:50 80.3 °F 60.0 °F 30.05 in SE 15.0 mph 15.0 mph 50% 0.00 in FEW
15:55 80.2 °F 59.9 °F 30.04 in SE 15.0 mph 15.0 mph 50% 0.00 in FEW
16:00 80.3 °F 60.0 °F 30.04 in SE 15.0 mph 15.0 mph 50% 0.00 in FEW
16:05 80.3 °F 60.0 °F 30.04 in SE 15.0 mph 15.0 mph 50% 0.00 in FEW
16:10 80.7 °F 60.4 °F 30.04 in SE 15.0 mph 15.0 mph 50% 0.00 in FEW
16:15 81.2 °F 60.2 °F 30.04 in ESE 9.0 mph 15.0 mph 49% 0.00 in FEW
16:20 81.3 °F 59.7 °F 30.04 in East 9.0 mph 9.0 mph 48% 0.00 in FEW
16:25 81.1 °F 60.2 °F 30.04 in East 9.0 mph 9.0 mph 49% 0.00 in FEW
16:30 80.9 °F 60.5 °F 30.04 in East 9.0 mph 9.0 mph 50% 0.00 in FEW
16:35 80.6 °F 59.7 °F 30.04 in East 9.0 mph 9.0 mph 49% 0.00 in FEW
16:40 80.4 °F 60.6 °F 30.04 in East 9.0 mph 9.0 mph 51% 0.00 in FEW
16:45 79.9 °F 59.6 °F 30.04 in East 9.0 mph 9.0 mph 50% 0.00 in FEW
16:50 79.5 °F 60.3 °F 30.04 in East 9.0 mph 9.0 mph 52% 0.00 in FEW
16:55 79.3 °F 59.6 °F 30.04 in East 9.0 mph 9.0 mph 51% 0.00 in FEW
17:00 79.2 °F 60.6 °F 30.03 in East 9.0 mph 9.0 mph 53% 0.00 in FEW
17:05 79.3 °F 61.2 °F 30.03 in East 9.0 mph 9.0 mph 54% 0.00 in FEW
17:10 79.4 °F 61.3 °F 30.03 in East 9.0 mph 9.0 mph 54% 0.00 in FEW
17:15 79.5 °F 60.9 °F 30.03 in ESE 8.0 mph 9.0 mph 53% 0.00 in SCT
17:20 79.5 °F 60.9 °F 30.03 in ESE 8.0 mph 8.0 mph 53% 0.00 in SCT
17:25 79.5 °F 60.9 °F 30.03 in ESE 8.0 mph 8.0 mph 53% 0.00 in SCT
17:30 79.5 °F 61.4 °F 30.03 in ESE 8.0 mph 8.0 mph 54% 0.00 in SCT
17:40 79.2 °F 61.6 °F 30.03 in ESE 8.0 mph 8.0 mph 55% 0.00 in SCT
17:45 79.1 °F 62.0 °F 30.03 in ESE 8.0 mph 8.0 mph 56% 0.00 in SCT
17:50 79.0 °F 61.9 °F 30.03 in ESE 8.0 mph 8.0 mph 56% 0.00 in SCT
17:55 78.8 °F 62.2 °F 30.03 in ESE 8.0 mph 8.0 mph 57% 0.00 in SCT
18:00 78.5 °F 62.0 °F 30.03 in ESE 8.0 mph 8.0 mph 57% 0.00 in SCT
18:05 78.4 °F 62.4 °F 30.03 in ESE 8.0 mph 8.0 mph 58% 0.00 in SCT
18:10 78.3 °F 62.8 °F 30.03 in ESE 8.0 mph 8.0 mph 59% 0.00 in SCT
18:15 78.2 °F 63.2 °F 30.03 in ESE 10.0 mph 10.0 mph 60% 0.00 in BKN
18:20 78.1 °F 63.1 °F 30.03 in ESE 10.0 mph 10.0 mph 60% 0.00 in BKN
18:25 78.1 °F 63.1 °F 30.02 in ESE 10.0 mph 10.0 mph 60% 0.00 in BKN
18:30 78.0 °F 63.0 °F 30.03 in ESE 10.0 mph 10.0 mph 60% 0.00 in BKN
18:35 77.9 °F 63.4 °F 30.03 in ESE 10.0 mph 10.0 mph 61% 0.00 in BKN
18:40 77.7 °F 63.2 °F 30.03 in ESE 10.0 mph 10.0 mph 61% 0.00 in BKN
18:45 77.6 °F 63.1 °F 30.03 in ESE 10.0 mph 10.0 mph 61% 0.00 in BKN
18:50 77.4 °F 62.9 °F 30.03 in ESE 10.0 mph 10.0 mph 61% 0.00 in BKN
18:55 77.2 °F 63.2 °F 30.03 in ESE 10.0 mph 10.0 mph 62% 0.00 in BKN
19:00 77.0 °F 63.0 °F 30.03 in ESE 10.0 mph 10.0 mph 62% 0.00 in BKN
19:05 76.7 °F 63.2 °F 30.03 in ESE 10.0 mph 10.0 mph 63% 0.00 in BKN
19:10 76.4 °F 63.3 °F 30.03 in ESE 10.0 mph 10.0 mph 64% 0.00 in BKN
19:15 76.2 °F 63.1 °F 30.03 in ESE 9.0 mph 10.0 mph 64% 0.00 in BKN
19:20 76.0 °F 62.9 °F 30.03 in ESE 9.0 mph 9.0 mph 64% 0.00 in BKN
19:25 75.6 °F 63.5 °F 30.03 in ESE 9.0 mph 9.0 mph 66% 0.00 in BKN
19:30 75.2 °F 63.5 °F 30.03 in ESE 9.0 mph 9.0 mph 67% 0.00 in BKN
19:35 74.8 °F 63.1 °F 30.03 in ESE 9.0 mph 9.0 mph 67% 0.00 in BKN
19:40 74.3 °F 63.0 °F 30.03 in ESE 9.0 mph 9.0 mph 68% 0.00 in BKN
19:45 73.9 °F 63.1 °F 30.03 in ESE 9.0 mph 9.0 mph 69% 0.00 in BKN
19:50 73.5 °F 63.1 °F 30.03 in ESE 9.0 mph 9.0 mph 70% 0.00 in BKN
19:55 73.2 °F 63.2 °F 30.03 in ESE 9.0 mph 9.0 mph 71% 0.00 in BKN
20:00 72.9 °F 62.9 °F 30.03 in ESE 9.0 mph 9.0 mph 71% 0.00 in BKN
20:05 72.6 °F 63.1 °F 30.03 in ESE 9.0 mph 9.0 mph 72% 0.00 in BKN
20:15 72.2 °F 63.0 °F 30.03 in East 3.0 mph 9.0 mph 73% 0.00 in SCT
20:20 72.0 °F 62.9 °F 30.03 in East 3.0 mph 3.0 mph 73% 0.00 in SCT
20:25 71.9 °F 63.2 °F 30.04 in East 3.0 mph 3.0 mph 74% 0.00 in SCT
20:30 71.7 °F 63.0 °F 30.04 in East 3.0 mph 3.0 mph 74% 0.00 in SCT
20:35 71.6 °F 63.3 °F 30.04 in East 3.0 mph 3.0 mph 75% 0.00 in SCT
20:40 71.5 °F 63.1 °F 30.04 in East 3.0 mph 3.0 mph 75% 0.00 in SCT
20:45 71.4 °F 63.1 °F 30.04 in East 3.0 mph 3.0 mph 75% 0.00 in SCT
20:50 71.4 °F 63.5 °F 30.04 in East 3.0 mph 3.0 mph 76% 0.00 in SCT
20:55 71.5 °F 63.5 °F 30.04 in East 3.0 mph 3.0 mph 76% 0.00 in SCT
21:00 71.5 °F 63.5 °F 30.04 in East 3.0 mph 3.0 mph 76% 0.00 in SCT
21:05 71.5 °F 63.5 °F 30.04 in East 3.0 mph 3.0 mph 76% 0.00 in SCT
21:10 71.5 °F 63.5 °F 30.04 in East 3.0 mph 3.0 mph 76% 0.00 in SCT
21:15 71.4 °F 63.4 °F 30.04 in East 3.0 mph 3.0 mph 76% 0.00 in BKN
21:20 71.4 °F 63.4 °F 30.05 in East 3.0 mph 3.0 mph 76% 0.00 in BKN
21:25 71.4 °F 63.4 °F 30.04 in East 3.0 mph 3.0 mph 76% 0.00 in BKN
21:30 71.4 °F 63.8 °F 30.04 in East 3.0 mph 3.0 mph 77% 0.00 in BKN
21:35 71.3 °F 63.7 °F 30.04 in East 3.0 mph 3.0 mph 77% 0.00 in BKN
21:40 71.3 °F 63.7 °F 30.04 in East 3.0 mph 3.0 mph 77% 0.00 in BKN
21:45 71.3 °F 63.7 °F 30.05 in East 3.0 mph 3.0 mph 77% 0.00 in BKN
21:50 71.2 °F 63.2 °F 30.04 in East 3.0 mph 3.0 mph 76% 0.00 in BKN
21:55 71.2 °F 63.3 °F 30.04 in East 3.0 mph 3.0 mph 76% 0.00 in BKN
22:00 71.2 °F 63.2 °F 30.04 in East 3.0 mph 3.0 mph 76% 0.00 in BKN
22:05 71.2 °F 63.6 °F 30.04 in East 3.0 mph 3.0 mph 77% 0.00 in BKN
22:10 71.1 °F 63.5 °F 30.04 in East 3.0 mph 3.0 mph 77% 0.00 in BKN
22:15 70.9 °F 63.3 °F 30.04 in ENE 3.0 mph 3.0 mph 77% 0.00 in BKN
22:20 70.8 °F 63.2 °F 30.04 in ENE 3.0 mph 3.0 mph 77% 0.00 in BKN
22:25 70.6 °F 63.4 °F 30.05 in ENE 3.0 mph 3.0 mph 78% 0.00 in BKN
22:30 70.5 °F 63.3 °F 30.04 in ENE 3.0 mph 3.0 mph 78% 0.00 in BKN
22:35 70.5 °F 63.6 °F 30.04 in ENE 3.0 mph 3.0 mph 79% 0.00 in BKN
22:45 70.4 °F 63.6 °F 30.04 in ENE 3.0 mph 3.0 mph 79% 0.00 in BKN
22:50 70.4 °F 63.5 °F 30.04 in ENE 3.0 mph 3.0 mph 79% 0.00 in BKN
23:00 70.4 °F 63.6 °F 30.04 in ENE 3.0 mph 3.0 mph 79% 0.00 in BKN
23:05 70.6 °F 63.8 °F 30.03 in ENE 3.0 mph 3.0 mph 79% 0.00 in BKN
23:10 70.7 °F 63.9 °F 30.03 in ENE 3.0 mph 3.0 mph 79% 0.00 in BKN
23:15 70.8 °F 64.0 °F 30.04 in East 6.0 mph 6.0 mph 79% 0.00 in OVC
23:20 70.9 °F 64.1 °F 30.04 in East 6.0 mph 6.0 mph 79% 0.00 in OVC
23:25 70.9 °F 64.1 °F 30.04 in East 6.0 mph 6.0 mph 79% 0.00 in OVC
23:30 71.0 °F 64.2 °F 30.04 in East 6.0 mph 6.0 mph 79% 0.00 in OVC
23:35 71.0 °F 64.2 °F 30.04 in East 6.0 mph 6.0 mph 79% 0.00 in OVC
23:40 71.0 °F 64.2 °F 30.04 in East 6.0 mph 6.0 mph 79% 0.00 in OVC
23:45 71.0 °F 64.2 °F 30.03 in East 6.0 mph 6.0 mph 79% 0.00 in OVC
23:50 71.1 °F 64.3 °F 30.03 in East 6.0 mph 6.0 mph 79% 0.00 in OVC
23:55 71.1 °F 64.3 °F 30.03 in East 6.0 mph 6.0 mph 79% 0.00 in OVC
Piedmont Bend
Compliments of Weather Underground - 3 mb